GW2731 Weather Reports


time (UTC)temp
C
wind
direction
speed
KPH
gust
KPH
rain 1hr
cm
rain 24hr
cm
rain mn
cm
humidity
%
barometer
mb
20260906193656 39 155 1.6 11.3 0.00 0.00 0.00 36 1014.9
20260906193150 38 170 1.6 4.8 0.00 0.00 0.00 35 1015.1
20260906192646 38 154 1.6 4.8 0.00 0.00 0.00 37 1015.0
20260906192146 38 174 6.4 12.9 0.00 0.00 0.00 38 1015.2
20260906191641 38 144 6.4 12.9 0.00 0.00 0.00 39 1015.4
20260906191140 38 159 1.6 6.4 0.00 0.00 0.00 37 1015.3
20260906190634 38 171 3.2 6.4 0.00 0.00 0.00 38 1015.2
20260906190129 39 168 6.4 11.3 0.00 0.00 0.00 37 1015.4
20260906185628 38 132 1.6 4.8 0.00 0.00 0.00 38 1015.6
20260906185127 37 132 3.2 4.8 0.00 0.00 0.00 39 1015.3
20260906184622 38 281 3.2 6.4 0.00 0.00 0.00 40 1015.6
20260906184118 38 199 8.0 9.7 0.00 0.00 0.00 39 1015.9
20260906183614 38 220 3.2 6.4 0.00 0.00 0.00 39 1015.7
20260906183109 37 116 1.6 3.2 0.00 0.00 0.00 41 1015.7
20260906182604 37 151 0.0 3.2 0.00 0.00 0.00 43 1016.1
20260906182101 37 114 3.2 6.4 0.00 0.00 0.00 41 1016.2
20260906181555 36 132 0.0 4.8 0.00 0.00 0.00 44 1016.0
20260906181052 37 51 4.8 6.4 0.00 0.00 0.00 43 1016.3
20260906180551 38 100 4.8 6.4 0.00 0.00 0.00 42 1016.4
20260906180050 38 107 4.8 6.4 0.00 0.00 0.00 41 1016.5
20260906175549 37 160 0.0 4.8 0.00 0.00 0.00 44 1016.6
20260906175044 37 172 1.6 6.4 0.00 0.00 0.00 44 1016.7
20260906174542 37 246 4.8 9.7 0.00 0.00 0.00 44 1016.9
20260906174037 37 159 1.6 3.2 0.00 0.00 0.00 45 1016.8
20260906173532 37 195 3.2 4.8 0.00 0.00 0.00 46 1016.8
20260906173029 37 211 3.2 4.8 0.00 0.00 0.00 44 1016.9
20260906172523 37 185 3.2 3.2 0.00 0.00 0.00 45 1017.0
20260906172018 37 294 1.6 3.2 0.00 0.00 0.00 45 1017.1
20260906171513 36 145 1.6 6.4 0.00 0.00 0.00 48 1017.1
20260906171008 36 116 3.2 6.4 0.00 0.00 0.00 48 1017.3
20260906170504 36 133 0.0 4.8 0.00 0.00 0.00 48 1017.2
20260906170003 36 100 3.2 4.8 0.00 0.00 0.00 48 1017.4
20260906165500 36 194 3.2 6.4 0.00 0.00 0.00 49 1017.2
20260906164955 36 193 3.2 4.8 0.00 0.00 0.00 49 1017.7
20260906164454 35 147 0.0 1.6 0.00 0.00 0.00 49 1017.7
20260906163951 35 174 1.6 3.2 0.00 0.00 0.00 49 1017.6
20260906163446 35 156 0.0 3.2 0.00 0.00 0.00 49 1017.7
20260906162944 35 158 0.0 4.8 0.00 0.00 0.00 49 1017.6
20260906162443 35 223 6.4 6.4 0.00 0.00 0.00 49 1017.7
20260906161937 35 144 0.0 0.0 0.00 0.00 0.00 49 1017.8
20260906161432 35 187 1.6 4.8 0.00 0.00 0.00 51 1017.8
20260906160931 35 179 3.2 4.8 0.00 0.00 0.00 51 1017.7
20260906160424 35 160 1.6 1.6 0.00 0.00 0.00 50 1017.7
20260906155923 34 134 0.0 3.2 0.00 0.00 0.00 50 1017.8
20260906155416 34 168 1.6 1.6 0.00 0.00 0.00 51 1017.8
20260906154913 34 165 1.6 3.2 0.00 0.00 0.00 52 1017.7
20260906154407 34 165 1.6 6.4 0.00 0.00 0.00 53 1017.7
20260906153906 33 142 0.0 4.8 0.00 0.00 0.00 54 1017.9
20260906153404 33 162 1.6 1.6 0.00 0.00 0.00 54 1017.6
20260906152900 33 154 1.6 4.8 0.00 0.00 0.00 55 1017.6
20260906152355 33 160 1.6 4.8 0.00 0.00 0.00 57 1017.5
20260906151854 32 113 1.6 3.2 0.00 0.00 0.00 56 1017.7
20260906151350 32 160 1.6 3.2 0.00 0.00 0.00 58 1017.5
20260906150846 32 157 0.0 4.8 0.00 0.00 0.00 58 1017.7
20260906150341 32 154 0.0 3.2 0.00 0.00 0.00 59 1017.7
20260906145840 32 146 3.2 4.8 0.00 0.00 0.00 60 1017.5
20260906145339 32 152 0.0 3.2 0.00 0.00 0.00 61 1017.6
20260906144834 32 147 0.0 1.6 0.00 0.00 0.00 58 1017.7
20260906144329 31 164 1.6 3.2 0.00 0.00 0.00 60 1017.5
20260906143829 31 160 1.6 3.2 0.00 0.00 0.00 63 1017.6
20260906143325 31 158 1.6 3.2 0.00 0.00 0.00 63 1017.6
20260906142820 31 156 1.6 1.6 0.00 0.00 0.00 62 1017.6
20260906142315 30 189 4.8 4.8 0.00 0.00 0.00 64 1017.3
20260906141815 30 224 3.2 3.2 0.00 0.00 0.00 65 1017.4
20260906141309 30 298 1.6 3.2 0.00 0.00 0.00 65 1017.2
20260906140808 31 155 0.0 3.2 0.00 0.00 0.00 65 1017.3
20260906140303 30 168 0.0 3.2 0.00 0.00 0.00 66 1017.4
20260906135801 30 154 0.0 1.6 0.00 0.00 0.00 67 1017.3
20260906135256 30 172 0.0 3.2 0.00 0.00 0.00 68 1017.2
20260906134751 28 165 0.0 3.2 0.00 0.00 0.00 70 1017.1
20260906134246 28 196 1.6 3.2 0.00 0.00 0.00 71 1017.1
20260906133742 28 159 0.0 1.6 0.00 0.00 0.00 73 1017.3
20260906133238 28 163 1.6 3.2 0.00 0.00 0.00 75 1017.3
20260906132733 27 164 1.6 3.2 0.00 0.00 0.00 76 1017.3
20260906132228 27 171 1.6 3.2 0.00 0.00 0.00 78 1017.2
20260906131723 26 165 1.6 3.2 0.00 0.00 0.00 80 1017.1
20260906131213 26 160 1.6 1.6 0.00 0.00 0.00 80 1017.1
20260906130708 26 163 1.6 1.6 0.00 0.00 0.00 80 1017.2
20260906130203 26 149 0.0 0.0 0.00 0.00 0.00 82 1017.1
20260906125701 26 150 0.0 0.0 0.00 0.00 0.00 83 1017.1
20260906125200 26 150 0.0 0.0 0.00 0.00 0.00 83 1017.2
20260906124655 26 152 0.0 1.6 0.00 0.00 0.00 85 1017.1
20260906124151 25 158 0.0 0.0 0.00 0.00 0.00 88 1017.0
20260906123649 25 161 1.6 1.6 0.00 0.00 0.00 89 1017.1
20260906123145 25 153 0.0 1.6 0.00 0.00 0.00 89 1017.0
20260906122644 25 155 0.0 1.6 0.00 0.00 0.00 90 1016.8
20260906122140 24 156 0.0 0.0 0.00 0.00 0.00 90 1016.8
20260906121636 24 157 0.0 0.0 0.00 0.00 0.00 91 1016.9
20260906121132 23 154 0.0 0.0 0.00 0.00 0.00 91 1016.9
20260906120627 23 155 0.0 0.0 0.00 0.00 0.00 91 1016.7
20260906120125 24 158 0.0 0.0 0.00 0.00 0.00 92 1016.6
20260906115624 24 158 0.0 0.0 0.00 0.00 0.00 91 1016.6
20260906115120 23 156 0.0 0.0 0.00 0.00 0.00 90 1016.7
20260906114614 23 162 0.0 0.0 0.00 0.00 0.00 91 1016.6
20260906114109 24 155 0.0 0.0 0.00 0.00 0.00 90 1016.6
20260906113609 24 154 0.0 0.0 0.00 0.00 0.00 90 1016.7
20260906113103 24 147 0.0 0.0 0.00 0.00 0.00 90 1016.5
20260906112557 24 145 0.0 0.0 0.00 0.00 0.00 90 1016.5
20260906112055 24 147 0.0 0.0 0.00 0.00 0.00 90 1016.2
20260906111553 24 146 0.0 0.0 0.00 0.00 0.00 90 1016.2
20260906111049 24 158 0.0 0.0 0.00 0.00 0.00 89 1016.1
20260906110549 24 156 0.0 0.0 0.00 0.00 0.00 89 1016.1
20260906110048 24 154 0.0 0.0 0.00 0.00 0.00 90 1016.1
20260906105543 24 154 0.0 0.0 0.00 0.00 0.00 89 1016.2
20260906105039 25 153 0.0 0.0 0.00 0.00 0.00 89 1016.1
20260906104537 25 146 0.0 0.0 0.00 0.00 0.00 89 1016.1
20260906104032 25 145 0.0 0.0 0.00 0.00 0.00 89 1016.3
20260906103530 25 152 0.0 0.0 0.00 0.00 0.00 88 1016.2
20260906103026 25 156 0.0 0.0 0.00 0.00 0.00 88 1016.4
20260906102526 25 155 0.0 0.0 0.00 0.00 0.00 87 1016.1
20260906102021 25 149 0.0 0.0 0.00 0.00 0.00 86 1016.1
20260906101515 25 157 0.0 0.0 0.00 0.00 0.00 87 1016.1
20260906101010 25 159 0.0 0.0 0.00 0.00 0.00 87 1015.9
20260906100506 25 158 0.0 0.0 0.00 0.00 0.00 87 1016.0
20260906100000 25 158 0.0 0.0 0.00 0.00 0.00 87 1016.0
20260906095455 25 155 0.0 0.0 0.00 0.00 0.00 87 1016.2
20260906094950 25 151 0.0 0.0 0.00 0.00 0.00 87 1016.2
20260906094449 25 157 0.0 0.0 0.00 0.00 0.00 88 1016.0
20260906093946 25 158 0.0 0.0 0.00 0.00 0.00 87 1016.1
20260906093441 25 155 0.0 0.0 0.00 0.00 0.00 87 1015.9
20260906092936 25 156 0.0 0.0 0.00 0.00 0.00 85 1016.1
20260906092436 25 158 0.0 1.6 0.00 0.00 0.00 85 1016.2
20260906091931 25 149 0.0 1.6 0.00 0.00 0.00 84 1015.9
20260906091427 25 146 0.0 0.0 0.00 0.00 0.00 84 1015.6
20260906090923 25 154 0.0 0.0 0.00 0.00 0.00 84 1015.9
20260906090418 25 154 0.0 0.0 0.00 0.00 0.00 83 1015.6
20260906085912 26 158 0.0 0.0 0.00 0.00 0.00 83 1015.9
20260906085412 26 158 0.0 0.0 0.00 0.00 0.00 82 1015.7
20260906084911 26 169 1.6 3.2 0.00 0.00 0.00 82 1015.6
20260906084406 26 151 0.0 0.0 0.00 0.00 0.00 82 1015.6
20260906083905 26 156 0.0 1.6 0.00 0.00 0.00 82 1015.6
20260906083401 26 151 0.0 3.2 0.00 0.00 0.00 81 1015.5
20260906082900 26 151 1.6 3.2 0.00 0.00 0.00 81 1015.5
20260906082355 26 153 0.0 0.0 0.00 0.00 0.00 80 1015.5
20260906081852 26 153 0.0 0.0 0.00 0.00 0.00 81 1015.5
20260906081347 26 154 0.0 0.0 0.00 0.00 0.00 81 1015.1
20260906080843 26 149 0.0 0.0 0.00 0.00 0.00 80 1015.1
20260906080339 26 158 0.0 0.0 0.00 0.00 0.00 81 1015.3
20260906075838 26 158 0.0 0.0 0.00 0.00 0.00 80 1015.1
20260906075333 26 159 0.0 1.6 0.00 0.00 0.00 81 1015.3
20260906074829 26 161 0.0 0.0 0.00 0.00 0.00 81 1015.2
20260906074328 26 156 0.0 0.0 0.00 0.00 0.00 81 1015.3
20260906073827 26 157 0.0 0.0 0.00 0.00 0.00 80 1015.3
20260906073322 26 156 0.0 0.0 0.00 0.00 0.00 80 1015.3
20260906072819 26 152 0.0 0.0 0.00 0.00 0.00 80 1015.1
20260906072314 26 149 0.0 0.0 0.00 0.00 0.00 80 1015.3
20260906071809 26 149 0.0 0.0 0.00 0.00 0.00 80 1015.2
20260906071304 27 132 1.6 1.6 0.00 0.00 0.00 80 1015.5
20260906070800 27 156 0.0 0.0 0.00 0.00 0.00 78 1015.4
20260906070256 27 156 0.0 0.0 0.00 0.00 0.00 77 1015.2
20260906065750 27 156 0.0 0.0 0.00 0.00 0.00 76 1015.4
20260906065245 27 157 0.0 0.0 0.00 0.00 0.00 75 1015.3
20260906064741 27 156 0.0 0.0 0.00 0.00 0.00 76 1015.4
20260906064237 27 156 0.0 0.0 0.00 0.00 0.00 76 1015.2
20260906063731 27 156 0.0 0.0 0.00 0.00 0.00 77 1015.5
20260906063227 27 156 0.0 0.0 0.00 0.00 0.00 77 1015.3
20260906062722 27 157 0.0 0.0 0.00 0.00 0.00 77 1015.5
20260906062221 27 153 0.0 0.0 0.00 0.00 0.00 77 1015.5
20260906061717 27 157 0.0 0.0 0.00 0.00 0.00 77 1015.5
20260906061213 27 155 0.0 0.0 0.00 0.00 0.00 76 1015.6
20260906060709 27 160 0.0 0.0 0.00 0.00 0.00 77 1015.5
20260906060206 27 154 0.0 0.0 0.00 0.00 0.00 78 1015.5
20260906055701 27 154 0.0 0.0 0.00 0.00 0.00 78 1015.5
20260906055156 27 148 0.0 0.0 0.00 0.00 0.00 78 1015.4
20260906054651 27 146 0.0 0.0 0.00 0.00 0.00 77 1015.4
20260906054146 26 146 0.0 0.0 0.00 0.00 0.00 78 1015.3
20260906053643 27 149 0.0 0.0 0.00 0.00 0.00 78 1015.3
20260906053138 27 146 0.0 0.0 0.00 0.00 0.00 78 1015.4
20260906052633 27 146 0.0 1.6 0.00 0.00 0.00 78 1015.4
20260906052129 27 145 0.0 0.0 0.00 0.00 0.00 78 1015.2
20260906051625 27 150 0.0 0.0 0.00 0.00 0.00 77 1015.2
20260906051120 27 150 0.0 0.0 0.00 0.00 0.00 77 1015.2
20260906050616 27 144 0.0 0.0 0.00 0.00 0.00 77 1015.1
20260906050111 27 145 0.0 0.0 0.00 0.00 0.00 77 1015.2
20260906045609 27 148 0.0 0.0 0.00 0.00 0.00 76 1015.2
20260906045104 27 149 0.0 0.0 0.00 0.00 0.00 75 1015.4
20260906044600 27 150 0.0 1.6 0.00 0.00 0.00 75 1015.4
20260906044055 27 156 0.0 3.2 0.00 0.00 0.00 74 1015.4
20260906043551 28 157 0.0 0.0 0.00 0.00 0.00 75 1015.2
20260906043047 28 155 1.6 1.6 0.00 0.00 0.00 76 1015.2
20260906042545 28 145 0.0 0.0 0.00 0.00 0.00 75 1015.2
20260906042040 28 153 0.0 0.0 0.00 0.00 0.00 74 1015.3
20260906041537 28 153 0.0 1.6 0.00 0.00 0.00 73 1015.1
20260906041031 28 159 0.0 0.0 0.00 0.00 0.00 70 1015.1
20260906040526 28 152 0.0 0.0 0.00 0.00 0.00 71 1015.2
20260906040022 29 147 0.0 0.0 0.00 0.00 0.00 70 1015.2
20260906035517 29 146 0.0 0.0 0.00 0.00 0.00 68 1015.1
20260906035013 28 157 0.0 0.0 0.00 0.00 0.00 68 1015.1
20260906034512 28 152 0.0 0.0 0.00 0.00 0.00 70 1015.3
20260906034008 29 125 0.0 0.0 0.00 0.00 0.00 68 1015.2
20260906033502 29 155 0.0 0.0 0.00 0.00 0.00 69 1015.0
20260906032958 29 157 0.0 0.0 0.00 0.00 0.00 68 1015.1
20260906032454 29 159 0.0 0.0 0.00 0.00 0.00 68 1015.0
20260906031948 29 156 0.0 0.0 0.00 0.00 0.00 69 1015.0
20260906031444 29 156 0.0 0.0 0.00 0.00 0.00 69 1014.9
20260906030939 30 157 0.0 0.0 0.00 0.00 0.00 68 1015.1
20260906030433 30 159 0.0 0.0 0.00 0.00 0.00 67 1015.2
20260906025928 30 154 0.0 0.0 0.00 0.00 0.00 67 1015.2
20260906025422 30 148 0.0 0.0 0.00 0.00 0.00 67 1015.2
20260906024921 30 148 0.0 0.0 0.00 0.00 0.00 66 1014.9
20260906024421 30 148 0.0 0.0 0.00 0.00 0.00 66 1014.8
20260906023916 30 154 0.0 0.0 0.00 0.00 0.00 65 1014.8
20260906023413 30 150 0.0 0.0 0.00 0.00 0.00 66 1014.8
20260906022912 30 150 0.0 0.0 0.00 0.00 0.00 65 1014.6
20260906022407 30 150 0.0 0.0 0.00 0.00 0.00 64 1014.5
20260906021903 30 150 0.0 0.0 0.00 0.00 0.00 63 1014.5
20260906021402 31 151 0.0 0.0 0.00 0.00 0.00 60 1014.4
20260906020856 31 151 0.0 0.0 0.00 0.00 0.00 60 1014.4
20260906020351 31 151 0.0 0.0 0.00 0.00 0.00 60 1014.4
20260906015846 31 156 0.0 0.0 0.00 0.00 0.00 59 1014.3
20260906015344 31 156 0.0 0.0 0.00 0.00 0.00 58 1014.1
20260906014839 32 156 0.0 0.0 0.00 0.00 0.00 57 1014.2
20260906014334 32 157 0.0 0.0 0.00 0.00 0.00 56 1014.2
20260906013830 32 157 0.0 0.0 0.00 0.00 0.00 56 1014.0
20260906013325 32 148 0.0 0.0 0.00 0.00 0.00 56 1013.9
20260906012820 32 148 0.0 0.0 0.00 0.00 0.00 55 1014.0
20260906012315 32 148 0.0 0.0 0.00 0.00 0.00 54 1013.9
20260906011809 33 153 0.0 0.0 0.00 0.00 0.00 53 1014.1
20260906011304 33 153 0.0 0.0 0.00 0.00 0.00 53 1014.0
20260906010800 33 155 0.0 0.0 0.00 0.00 0.00 52 1013.9
20260906010256 33 152 0.0 0.0 0.00 0.00 0.00 51 1013.9
20260906005751 34 149 0.0 0.0 0.00 0.00 0.00 49 1013.8
20260906005249 35 149 0.0 0.0 0.00 0.00 0.00 48 1013.8
20260906004743 35 157 0.0 0.0 0.00 0.00 0.00 45 1013.7
20260906004239 35 156 0.0 0.0 0.00 0.00 0.00 44 1013.8
20260906003739 35 170 1.6 1.6 0.00 0.00 0.00 44 1013.7
20260906003234 36 154 0.0 0.0 0.00 0.00 0.00 45 1013.8
20260906002729 36 129 1.6 1.6 0.00 0.00 0.00 43 1013.8
20260906002229 36 153 0.0 1.6 0.00 0.00 0.00 43 1013.7
20260906001724 36 158 0.0 1.6 0.00 0.00 0.00 42 1013.8
20260906001219 36 182 3.2 3.2 0.00 0.00 0.00 42 1013.7
20260906000715 37 200 3.2 4.8 0.00 0.00 0.00 42 1013.8
20260906000212 37 161 3.2 3.2 0.00 0.00 0.00 41 1013.7
20260905235709 37 158 1.6 6.4 0.00 0.00 0.00 41 1013.6
20260905235204 37 152 0.0 3.2 0.00 0.00 0.00 39 1013.7
20260905234659 37 110 3.2 4.8 0.00 0.00 0.00 39 1013.7
20260905234154 37 157 1.6 3.2 0.00 0.00 0.00 39 1013.6
20260905233650 37 141 3.2 3.2 0.00 0.00 0.00 40 1013.6
20260905233149 37 152 0.0 1.6 0.00 0.00 0.00 40 1013.4
20260905232644 37 156 4.8 6.4 0.00 0.00 0.00 40 1013.3
20260905232140 37 158 0.0 1.6 0.00 0.00 0.00 39 1013.5
20260905231635 37 120 4.8 4.8 0.00 0.00 0.00 39 1013.3
20260905231131 37 181 1.6 6.4 0.00 0.00 0.00 39 1013.2
20260905230621 37 140 0.0 1.6 0.00 0.00 0.00 38 1013.5
20260905230118 37 80 3.2 9.7 0.00 0.00 0.00 38 1013.3
20260905225612 37 121 3.2 9.7 0.00 0.00 0.00 38 1013.3
20260905224647 37 158 1.6 3.2 0.00 0.00 0.00 39 1013.6
20260905224142 37 158 1.6 3.2 0.00 0.00 0.00 39 1013.6
20260905223639 37 172 1.6 9.7 0.00 0.00 0.00 39 1013.5
20260905223136 37 143 6.4 14.5 0.00 0.00 0.00 39 1013.5
20260905222631 37 205 3.2 4.8 0.00 0.00 0.00 38 1013.7
20260905222125 37 153 1.6 9.7 0.00 0.00 0.00 39 1013.8
20260905221621 37 116 3.2 11.3 0.00 0.00 0.00 39 1013.8
20260905221118 37 121 3.2 9.7 0.00 0.00 0.00 39 1013.8
20260905220613 38 127 3.2 4.8 0.00 0.00 0.00 39 1013.9
20260905220109 38 143 3.2 9.7 0.00 0.00 0.00 38 1013.7
20260905215608 38 155 0.0 4.8 0.00 0.00 0.00 38 1013.8
20260905215104 37 153 0.0 3.2 0.00 0.00 0.00 39 1014.0
20260905214600 37 158 3.2 6.4 0.00 0.00 0.00 41 1013.8
20260905214055 37 187 1.6 6.4 0.00 0.00 0.00 39 1013.8
20260905213550 38 97 6.4 6.4 0.00 0.00 0.00 39 1014.1
20260905213045 37 117 1.6 4.8 0.00 0.00 0.00 40 1014.0
20260905212545 37 153 0.0 1.6 0.00 0.00 0.00 40 1014.2
20260905212045 37 153 0.0 1.6 0.00 0.00 0.00 40 1014.2
20260905211540 38 180 4.8 9.7 0.00 0.00 0.00 40 1014.1
20260905211036 37 175 1.6 3.2 0.00 0.00 0.00 40 1014.3
20260905210531 37 25 1.6 11.3 0.00 0.00 0.00 41 1014.3
20260905210026 37 172 3.2 6.4 0.00 0.00 0.00 40 1014.5
20260905205525 38 177 3.2 4.8 0.00 0.00 0.00 39 1014.7
20260905205024 38 139 1.6 4.8 0.00 0.00 0.00 39 1014.5
20260905204520 38 184 3.2 11.3 0.00 0.00 0.00 41 1014.8
20260905204015 37 172 1.6 3.2 0.00 0.00 0.00 38 1014.7
20260905203510 37 157 0.0 4.8 0.00 0.00 0.00 42 1014.8
20260905203005 38 158 3.2 11.3 0.00 0.00 0.00 42 1014.9
20260905202500 37 158 1.6 9.7 0.00 0.00 0.00 41 1014.9
20260905201956 38 167 3.2 14.5 0.00 0.00 0.00 40 1015.1
20260905201450 37 163 1.6 11.3 0.00 0.00 0.00 41 1015.3
20260905200950 37 143 6.4 11.3 0.00 0.00 0.00 43 1015.3
20260905200446 37 178 3.2 9.7 0.00 0.00 0.00 41 1015.3
20260905195944 37 168 3.2 11.3 0.00 0.00 0.00 42 1015.7
20260905195439 37 178 4.8 4.8 0.00 0.00 0.00 42 1015.7
20260905194935 37 170 8.0 14.5 0.00 0.00 0.00 42 1015.7
20260905194434 38 167 6.4 12.9 0.00 0.00 0.00 40 1015.5
20260905193935 37 158 1.6 4.8 0.00 0.00 0.00 41 1016.0